Hourly Weather Godzimierz

Today, 25 January, Monday

Time Temperature Precipitation Wind Pressure Humidity
00:00 -1°C° 0.4 mm 2 mps 733 mmHg 98%
01:00 -1°C° 0.4 mm 2 mps 733 mmHg 98%
02:00 -1°C° 0.2 mm 2 mps 733 mmHg 98%
03:00 -1°C° 0.2 mm 2 mps 733 mmHg 98%
04:00 -1°C° 0.2 mm 2 mps 733 mmHg 97%
05:00 -1°C° 0.1 mm 2 mps 734 mmHg 97%
06:00 -1°C° 0.1 mm 2 mps 734 mmHg 97%
07:00 -1°C° 0.1 mm 2 mps 734 mmHg 97%
08:00 -1°C° 0.1 mm 3 mps 736 mmHg 93%
09:00 -2°C° 0.1 mm 4 mps 736 mmHg 91%
10:00 -2°C° 0.1 mm 5 mps 736 mmHg 88%
11:00 -2°C° 0 mm 5 mps 737 mmHg 86%
12:00 -2°C° 0 mm 5 mps 737 mmHg 84%
13:00 -2°C° 0 mm 5 mps 737 mmHg 82%
14:00 -2°C° 0 mm 5 mps 737 mmHg 84%
15:00 -2°C° 0 mm 4 mps 738 mmHg 86%
16:00 -2°C° 0 mm 4 mps 738 mmHg 88%
17:00 -3°C° 0.1 mm 4 mps 738 mmHg 89%
18:00 -3°C° 0.1 mm 4 mps 738 mmHg 90%
19:00 -3°C° 0.1 mm 4 mps 739 mmHg 91%
20:00 -3°C° 0.1 mm 4 mps 739 mmHg 92%
21:00 -3°C° 0.1 mm 4 mps 739 mmHg 93%
22:00 -3°C° 0.1 mm 4 mps 739 mmHg 94%
23:00 -3°C° 0.2 mm 4 mps 739 mmHg 94%

Tomorrow, 26 January, Tuesday

Time Temperature Precipitation Wind Pressure Humidity
00:00 -3°C° 0.2 mm 4 mps 739 mmHg 95%
01:00 -2°C° 0.2 mm 4 mps 739 mmHg 95%
02:00 -3°C° 0.2 mm 4 mps 740 mmHg 95%
03:00 -2°C° 0.2 mm 3 mps 740 mmHg 95%
04:00 -2°C° 0.2 mm 3 mps 740 mmHg 94%
05:00 -2°C° 0.3 mm 3 mps 740 mmHg 94%
06:00 -2°C° 0.3 mm 3 mps 740 mmHg 94%
07:00 -2°C° 0.3 mm 3 mps 740 mmHg 94%
08:00 -3°C° 0.1 mm 4 mps 741 mmHg 93%
09:00 -2°C° 0.1 mm 4 mps 741 mmHg 92%
10:00 -2°C° 0.1 mm 4 mps 741 mmHg 91%
11:00 -2°C° 0.3 mm 4 mps 741 mmHg 92%
12:00 -2°C° 0.3 mm 5 mps 741 mmHg 92%
13:00 -1°C° 0.3 mm 5 mps 742 mmHg 93%
14:00 -1°C° 0.1 mm 5 mps 742 mmHg 92%
15:00 -2°C° 0.1 mm 6 mps 742 mmHg 90%
16:00 -2°C° 0.1 mm 6 mps 742 mmHg 89%
17:00 -2°C° 0 mm 5 mps 742 mmHg 89%
18:00 -2°C° 0 mm 5 mps 742 mmHg 88%
19:00 -2°C° 0 mm 5 mps 742 mmHg 88%
20:00 -4°C° 0 mm 5 mps 742 mmHg 89%
21:00 -4°C° 0 mm 4 mps 742 mmHg 90%
22:00 -4°C° 0 mm 4 mps 742 mmHg 91%
23:00 -4°C° 0 mm 4 mps 742 mmHg 91%

Day after tomorrow, 27 January, Wednesday

Time Temperature Precipitation Wind Pressure Humidity
00:00 -4°C° 0 mm 3 mps 742 mmHg 92%
01:00 -4°C° 0 mm 3 mps 741 mmHg 92%
02:00 -2°C° 0.1 mm 3 mps 741 mmHg 93%
03:00 -2°C° 0.1 mm 3 mps 741 mmHg 94%
04:00 -2°C° 0.1 mm 3 mps 740 mmHg 95%
05:00 -2°C° 0 mm 3 mps 740 mmHg 95%
06:00 -2°C° 0 mm 3 mps 740 mmHg 96%
07:00 -1°C° 0 mm 3 mps 740 mmHg 96%
08:00 -1°C° 0 mm 3 mps 740 mmHg 95%
09:00 -1°C° 0 mm 3 mps 741 mmHg 94%
10:00 -1°C° 0 mm 3 mps 741 mmHg 93%
11:00 -1°C° 0 mm 3 mps 741 mmHg 92%
12:00 -1°C° 0 mm 3 mps 741 mmHg 92%
13:00 0°C° 0 mm 3 mps 741 mmHg 91%
14:00 -1°C° 0 mm 3 mps 741 mmHg 91%
15:00 -1°C° 0 mm 3 mps 742 mmHg 92%
16:00 -1°C° 0 mm 3 mps 742 mmHg 92%
17:00 -1°C° 0 mm 3 mps 742 mmHg 93%
18:00 -1°C° 0 mm 3 mps 743 mmHg 93%
19:00 -1°C° 0 mm 3 mps 743 mmHg 93%
20:00 -1°C° 0 mm 3 mps 743 mmHg 93%
21:00 -2°C° 0 mm 3 mps 743 mmHg 94%
22:00 -2°C° 0 mm 3 mps 744 mmHg 94%
23:00 -2°C° 0 mm 3 mps 744 mmHg 94%

28 January, Thursday

Time Temperature Precipitation Wind Pressure Humidity
00:00 -4°C° 0 mm 3 mps 744 mmHg 95%
01:00 -4°C° 0 mm 3 mps 744 mmHg 95%
02:00 -4°C° 0 mm 3 mps 744 mmHg 96%
03:00 -4°C° 0 mm 3 mps 744 mmHg 96%
04:00 -4°C° 0 mm 3 mps 744 mmHg 97%
05:00 -3°C° 0 mm 2 mps 744 mmHg 96%
06:00 -3°C° 0 mm 2 mps 743 mmHg 95%
07:00 -3°C° 0 mm 2 mps 743 mmHg 94%
08:00 0°C° 0 mm 1 mps 743 mmHg 92%
09:00 0°C° 0 mm 1 mps 743 mmHg 91%
10:00 +1°C° 0 mm 1 mps 743 mmHg 89%
11:00 -1°C° 0 mm 2 mps 742 mmHg 87%
12:00 -1°C° 0 mm 2 mps 742 mmHg 85%
13:00 +1°C° 0 mm 2 mps 742 mmHg 84%
14:00 -1°C° 0 mm 2 mps 742 mmHg 86%
15:00 -1°C° 0 mm 2 mps 741 mmHg 88%
16:00 -1°C° 0 mm 2 mps 741 mmHg 90%
17:00 -2°C° 0 mm 2 mps 741 mmHg 92%
18:00 -2°C° 0 mm 2 mps 741 mmHg 93%
19:00 -4°C° 0 mm 3 mps 741 mmHg 94%

29 January, Friday

Time Temperature Precipitation Wind Pressure Humidity

30 January, Saturday

Time Temperature Precipitation Wind Pressure Humidity
Show more